Time,TemperatureF,DewpointF,PressureIn,WindDirection,WindDirectionDegrees,WindSpeedMPH,WindSpeedGustMPH,Humidity,HourlyPrecipIn,Conditions,Clouds,dailyrainin,SoftwareType,DateUTC
2013-01-08 00:00:00,25.0,23.0,30.15,SE,135,0.0,12.0,84,0.00,,,0.00,Rainwise IP-100,2013-01-08 05:00:00,
2013-01-08 00:05:00,25.0,23.0,30.15,South,180,7.0,14.0,84,0.00,,,0.00,Rainwise IP-100,2013-01-08 05:05:00,
2013-01-08 00:10:00,25.0,23.0,30.15,South,180,8.0,12.0,84,0.00,,,0.00,Rainwise IP-100,2013-01-08 05:10:00,
2013-01-08 00:15:00,25.0,23.0,30.15,SSE,157,3.0,11.0,84,0.00,,,0.00,Rainwise IP-100,2013-01-08 05:15:00,
2013-01-08 00:20:00,25.0,23.0,30.15,SE,135,0.0,12.0,84,0.00,,,0.00,Rainwise IP-100,2013-01-08 05:20:00,
2013-01-08 00:25:00,25.0,23.0,30.15,SE,135,0.0,10.0,84,0.00,,,0.00,Rainwise IP-100,2013-01-08 05:25:00,
2013-01-08 00:30:00,26.0,23.0,30.15,SSE,157,0.0,8.0,83,0.00,,,0.00,Rainwise IP-100,2013-01-08 05:30:00,
2013-01-08 00:35:00,26.0,23.0,30.15,SSE,157,0.0,11.0,83,0.00,,,0.00,Rainwise IP-100,2013-01-08 05:35:00,
2013-01-08 00:40:00,26.0,23.0,30.15,SSE,157,0.0,8.0,83,0.00,,,0.00,Rainwise IP-100,2013-01-08 05:40:00,
2013-01-08 00:45:00,26.0,21.0,30.15,SE,135,0.0,11.0,82,0.00,,,0.00,Rainwise IP-100,2013-01-08 05:45:00,
2013-01-08 00:50:00,26.0,23.0,30.15,ESE,112,5.0,10.0,83,0.00,,,0.00,Rainwise IP-100,2013-01-08 05:50:00,
2013-01-08 00:55:00,26.0,23.0,30.15,SSE,157,1.0,6.0,84,0.00,,,0.00,Rainwise IP-100,2013-01-08 05:55:00,
2013-01-08 01:00:00,26.0,23.0,30.15,SE,135,0.0,9.0,84,0.00,,,0.00,Rainwise IP-100,2013-01-08 06:00:00,
2013-01-08 01:05:00,26.0,23.0,30.15,South,180,3.0,10.0,83,0.00,,,0.00,Rainwise IP-100,2013-01-08 06:05:00,
2013-01-08 01:10:00,26.0,23.0,30.15,South,180,7.0,10.0,83,0.00,,,0.00,Rainwise IP-100,2013-01-08 06:10:00,
2013-01-08 01:15:00,27.0,23.0,30.14,SSE,157,0.0,9.0,81,0.00,,,0.00,Rainwise IP-100,2013-01-08 06:15:00,
2013-01-08 01:20:00,27.0,23.0,30.14,South,180,4.0,10.0,80,0.00,,,0.00,Rainwise IP-100,2013-01-08 06:20:00,
2013-01-08 01:25:00,27.0,23.0,30.13,South,180,0.0,12.0,80,0.00,,,0.00,Rainwise IP-100,2013-01-08 06:25:00,
2013-01-08 01:30:00,27.0,23.0,30.13,South,180,12.0,12.0,79,0.00,,,0.00,Rainwise IP-100,2013-01-08 06:30:00,
2013-01-08 01:35:00,27.0,23.0,30.14,South,180,5.0,12.0,79,0.00,,,0.00,Rainwise IP-100,2013-01-08 06:35:00,
2013-01-08 01:40:00,27.0,23.0,30.14,SSE,157,6.0,11.0,78,0.00,,,0.00,Rainwise IP-100,2013-01-08 06:40:00,
2013-01-08 01:45:00,27.0,23.0,30.14,SSE,157,4.0,13.0,78,0.00,,,0.00,Rainwise IP-100,2013-01-08 06:45:00,
2013-01-08 01:50:00,27.0,23.0,30.14,South,180,10.0,13.0,78,0.00,,,0.00,Rainwise IP-100,2013-01-08 06:50:00,
2013-01-08 01:55:00,27.0,23.0,30.14,South,180,11.0,13.0,78,0.00,,,0.00,Rainwise IP-100,2013-01-08 06:55:00,
2013-01-08 02:00:00,27.0,23.0,30.14,South,180,0.0,13.0,79,0.00,,,0.00,Rainwise IP-100,2013-01-08 07:00:00,
2013-01-08 02:05:00,27.0,23.0,30.14,South,180,8.0,15.0,79,0.00,,,0.00,Rainwise IP-100,2013-01-08 07:05:00,
2013-01-08 02:10:00,28.0,23.0,30.14,South,180,4.0,14.0,79,0.00,,,0.00,Rainwise IP-100,2013-01-08 07:10:00,
2013-01-08 02:15:00,28.0,23.0,30.14,South,180,5.0,11.0,78,0.00,,,0.00,Rainwise IP-100,2013-01-08 07:15:00,
2013-01-08 02:20:00,28.0,23.0,30.14,South,180,10.0,10.0,78,0.00,,,0.00,Rainwise IP-100,2013-01-08 07:20:00,
2013-01-08 02:25:00,28.0,23.0,30.14,SSE,157,7.0,11.0,78,0.00,,,0.00,Rainwise IP-100,2013-01-08 07:25:00,
2013-01-08 02:30:00,28.0,23.0,30.14,South,180,6.0,9.0,78,0.00,,,0.00,Rainwise IP-100,2013-01-08 07:30:00,
2013-01-08 02:35:00,27.0,23.0,30.14,South,180,0.0,9.0,80,0.00,,,0.00,Rainwise IP-100,2013-01-08 07:35:00,
2013-01-08 02:40:00,28.0,23.0,30.13,South,180,13.0,13.0,80,0.00,,,0.00,Rainwise IP-100,2013-01-08 07:40:00,
2013-01-08 02:45:00,28.0,23.0,30.13,South,180,9.0,16.0,80,0.00,,,0.00,Rainwise IP-100,2013-01-08 07:45:00,
2013-01-08 02:50:00,28.0,23.0,30.12,South,180,5.0,16.0,80,0.00,,,0.00,Rainwise IP-100,2013-01-08 07:50:00,
2013-01-08 02:55:00,28.0,23.0,30.12,South,180,6.0,14.0,80,0.00,,,0.00,Rainwise IP-100,2013-01-08 07:55:00,
2013-01-08 03:00:00,28.0,23.0,30.12,SSW,202,6.0,15.0,80,0.00,,,0.00,Rainwise IP-100,2013-01-08 08:00:00,
2013-01-08 03:05:00,28.0,23.0,30.12,SSW,202,2.0,13.0,80,0.00,,,0.00,Rainwise IP-100,2013-01-08 08:05:00,
2013-01-08 03:10:00,28.0,23.0,30.12,SW,225,0.0,13.0,80,0.00,,,0.00,Rainwise IP-100,2013-01-08 08:10:00,
2013-01-08 03:15:00,28.0,23.0,30.12,SSW,202,3.0,8.0,80,0.00,,,0.00,Rainwise IP-100,2013-01-08 08:15:00,
2013-01-08 03:20:00,28.0,23.0,30.12,SSW,202,0.0,10.0,80,0.00,,,0.00,Rainwise IP-100,2013-01-08 08:20:00,
2013-01-08 03:25:00,28.0,23.0,30.12,SW,225,0.0,8.0,80,0.00,,,0.00,Rainwise IP-100,2013-01-08 08:25:00,
2013-01-08 03:30:00,27.0,23.0,30.12,SW,225,3.0,10.0,82,0.00,,,0.00,Rainwise IP-100,2013-01-08 08:30:00,
2013-01-08 03:35:00,27.0,23.0,30.12,SW,225,1.0,11.0,83,0.00,,,0.00,Rainwise IP-100,2013-01-08 08:35:00,
2013-01-08 03:40:00,27.0,23.0,30.12,SSW,202,0.0,10.0,83,0.00,,,0.00,Rainwise IP-100,2013-01-08 08:40:00,
2013-01-08 03:45:00,27.0,24.0,30.12,SW,225,0.0,11.0,84,0.00,,,0.00,Rainwise IP-100,2013-01-08 08:45:00,
2013-01-08 03:50:00,27.0,24.0,30.12,SSW,202,3.0,11.0,84,0.00,,,0.00,Rainwise IP-100,2013-01-08 08:50:00,
2013-01-08 03:55:00,27.0,23.0,30.12,SSW,202,8.0,8.0,83,0.00,,,0.00,Rainwise IP-100,2013-01-08 08:55:00,
2013-01-08 04:00:00,27.0,24.0,30.12,SW,225,6.0,15.0,84,0.00,,,0.00,Rainwise IP-100,2013-01-08 09:00:00,
2013-01-08 04:04:00,27.0,24.0,30.12,South,180,3.0,8.0,84,0.00,,,0.00,Rainwise IP-100,2013-01-08 09:04:00,
2013-01-08 04:09:00,27.0,24.0,30.12,South,180,3.0,10.0,84,0.00,,,0.00,Rainwise IP-100,2013-01-08 09:09:00,
2013-01-08 04:14:00,27.0,24.0,30.11,SW,225,6.0,6.0,85,0.00,,,0.00,Rainwise IP-100,2013-01-08 09:14:00,
2013-01-08 04:19:00,27.0,24.0,30.11,South,180,0.0,11.0,85,0.00,,,0.00,Rainwise IP-100,2013-01-08 09:19:00,
2013-01-08 04:24:00,27.0,24.0,30.12,SSW,202,4.0,7.0,85,0.00,,,0.00,Rainwise IP-100,2013-01-08 09:24:00,
2013-01-08 04:29:00,27.0,24.0,30.12,South,180,7.0,8.0,86,0.00,,,0.00,Rainwise IP-100,2013-01-08 09:29:00,
2013-01-08 04:34:00,27.0,24.0,30.12,SSW,202,6.0,10.0,87,0.00,,,0.00,Rainwise IP-100,2013-01-08 09:34:00,
2013-01-08 04:39:00,27.0,24.0,30.12,South,180,3.0,8.0,87,0.00,,,0.00,Rainwise IP-100,2013-01-08 09:39:00,
2013-01-08 04:44:00,27.0,24.0,30.12,SSW,202,5.0,9.0,86,0.00,,,0.00,Rainwise IP-100,2013-01-08 09:44:00,
2013-01-08 04:49:00,27.0,24.0,30.13,SSE,157,0.0,6.0,85,0.00,,,0.00,Rainwise IP-100,2013-01-08 09:49:00,
2013-01-08 04:54:00,27.0,24.0,30.13,SW,225,5.0,10.0,87,0.00,,,0.00,Rainwise IP-100,2013-01-08 09:54:00,
2013-01-08 04:59:00,27.0,24.0,30.13,SSW,202,0.0,9.0,86,0.00,,,0.00,Rainwise IP-100,2013-01-08 09:59:00,
2013-01-08 05:04:00,27.0,24.0,30.13,SSW,202,2.0,9.0,87,0.00,,,0.00,Rainwise IP-100,2013-01-08 10:04:00,
2013-01-08 05:09:00,27.0,24.0,30.13,South,180,6.0,10.0,88,0.00,,,0.00,Rainwise IP-100,2013-01-08 10:09:00,
2013-01-08 05:14:00,27.0,24.0,30.13,South,180,6.0,14.0,88,0.00,,,0.00,Rainwise IP-100,2013-01-08 10:14:00,
2013-01-08 05:19:00,27.0,24.0,30.12,SW,225,5.0,16.0,87,0.00,,,0.00,Rainwise IP-100,2013-01-08 10:19:00,
2013-01-08 05:24:00,27.0,24.0,30.12,SW,225,7.0,10.0,87,0.00,,,0.00,Rainwise IP-100,2013-01-08 10:24:00,
2013-01-08 05:29:00,28.0,24.0,30.13,SSW,202,5.0,9.0,87,0.00,,,0.00,Rainwise IP-100,2013-01-08 10:29:00,
2013-01-08 05:34:00,27.0,24.0,30.13,SSW,202,2.0,12.0,87,0.00,,,0.00,Rainwise IP-100,2013-01-08 10:34:00,
2013-01-08 05:39:00,27.0,24.0,30.13,SSW,202,3.0,11.0,87,0.00,,,0.00,Rainwise IP-100,2013-01-08 10:39:00,
2013-01-08 05:44:00,28.0,24.0,30.13,SSE,157,6.0,12.0,87,0.00,,,0.00,Rainwise IP-100,2013-01-08 10:44:00,
2013-01-08 05:49:00,28.0,24.0,30.13,SW,225,6.0,11.0,87,0.00,,,0.00,Rainwise IP-100,2013-01-08 10:49:00,
2013-01-08 05:54:00,28.0,24.0,30.13,South,180,8.0,13.0,87,0.00,,,0.00,Rainwise IP-100,2013-01-08 10:54:00,
2013-01-08 05:59:00,28.0,24.0,30.13,SSW,202,8.0,13.0,87,0.00,,,0.00,Rainwise IP-100,2013-01-08 10:59:00,
2013-01-08 06:04:00,28.0,24.0,30.13,SW,225,3.0,16.0,86,0.00,,,0.00,Rainwise IP-100,2013-01-08 11:04:00,
2013-01-08 06:09:00,28.0,24.0,30.14,SSW,202,6.0,13.0,86,0.00,,,0.00,Rainwise IP-100,2013-01-08 11:09:00,
2013-01-08 06:14:00,28.0,24.0,30.14,South,180,4.0,11.0,86,0.00,,,0.00,Rainwise IP-100,2013-01-08 11:14:00,
2013-01-08 06:19:00,28.0,24.0,30.14,SSW,202,6.0,10.0,87,0.00,,,0.00,Rainwise IP-100,2013-01-08 11:19:00,
2013-01-08 06:24:00,28.0,24.0,30.14,SW,225,4.0,11.0,87,0.00,,,0.00,Rainwise IP-100,2013-01-08 11:24:00,
2013-01-08 06:29:00,27.0,24.0,30.14,SSW,202,9.0,10.0,87,0.00,,,0.00,Rainwise IP-100,2013-01-08 11:29:00,
2013-01-08 06:34:00,27.0,24.0,30.15,SSW,202,1.0,11.0,87,0.00,,,0.00,Rainwise IP-100,2013-01-08 11:34:00,
2013-01-08 06:39:00,27.0,24.0,30.15,SW,225,4.0,11.0,87,0.00,,,0.00,Rainwise IP-100,2013-01-08 11:39:00,
2013-01-08 06:44:00,27.0,24.0,30.16,SSW,202,4.0,11.0,87,0.00,,,0.00,Rainwise IP-100,2013-01-08 11:44:00,
2013-01-08 06:49:00,27.0,24.0,30.16,South,180,5.0,10.0,88,0.00,,,0.00,Rainwise IP-100,2013-01-08 11:49:00,
2013-01-08 06:54:00,27.0,24.0,30.15,South,180,10.0,11.0,88,0.00,,,0.00,Rainwise IP-100,2013-01-08 11:54:00,
2013-01-08 06:59:00,27.0,24.0,30.15,SSW,202,6.0,10.0,88,0.00,,,0.00,Rainwise IP-100,2013-01-08 11:59:00,
2013-01-08 07:04:00,27.0,24.0,30.15,South,180,2.0,11.0,88,0.00,,,0.00,Rainwise IP-100,2013-01-08 12:04:00,
2013-01-08 07:09:00,27.0,24.0,30.16,SSW,202,4.0,10.0,87,0.00,,,0.00,Rainwise IP-100,2013-01-08 12:09:00,
2013-01-08 07:14:00,27.0,24.0,30.16,South,180,8.0,11.0,88,0.00,,,0.00,Rainwise IP-100,2013-01-08 12:14:00,
2013-01-08 07:19:00,28.0,24.0,30.16,SW,225,8.0,11.0,87,0.00,,,0.00,Rainwise IP-100,2013-01-08 12:19:00,
2013-01-08 07:24:00,27.0,24.0,30.16,South,180,5.0,11.0,88,0.00,,,0.00,Rainwise IP-100,2013-01-08 12:24:00,
2013-01-08 07:29:00,27.0,24.0,30.16,SSW,202,7.0,14.0,88,0.00,,,0.00,Rainwise IP-100,2013-01-08 12:29:00,
2013-01-08 07:34:00,27.0,24.0,30.16,SSW,202,5.0,9.0,88,0.00,,,0.00,Rainwise IP-100,2013-01-08 12:34:00,
2013-01-08 07:39:00,27.0,24.0,30.17,SSE,157,6.0,10.0,88,0.00,,,0.00,Rainwise IP-100,2013-01-08 12:39:00,
2013-01-08 07:44:00,27.0,24.0,30.17,SSW,202,1.0,10.0,88,0.00,,,0.00,Rainwise IP-100,2013-01-08 12:44:00,
2013-01-08 07:49:00,27.0,24.0,30.17,SSW,202,6.0,13.0,88,0.00,,,0.00,Rainwise IP-100,2013-01-08 12:49:00,
2013-01-08 07:54:00,27.0,24.0,30.17,South,180,4.0,11.0,88,0.00,,,0.00,Rainwise IP-100,2013-01-08 12:54:00,
2013-01-08 07:59:00,27.0,24.0,30.18,SSW,202,8.0,10.0,88,0.00,,,0.00,Rainwise IP-100,2013-01-08 12:59:00,
2013-01-08 08:04:00,28.0,24.0,30.18,South,180,10.0,10.0,88,0.00,,,0.00,Rainwise IP-100,2013-01-08 13:04:00,
2013-01-08 08:09:00,28.0,24.0,30.18,SSW,202,5.0,11.0,87,0.00,,,0.00,Rainwise IP-100,2013-01-08 13:09:00,
2013-01-08 08:14:00,28.0,24.0,30.18,SW,225,9.0,14.0,86,0.00,,,0.00,Rainwise IP-100,2013-01-08 13:14:00,
2013-01-08 08:19:00,29.0,26.0,30.18,South,180,4.0,10.0,85,0.00,,,0.00,Rainwise IP-100,2013-01-08 13:19:00,
2013-01-08 08:24:00,30.0,26.0,30.18,SSW,202,5.0,10.0,83,0.00,,,0.00,Rainwise IP-100,2013-01-08 13:24:00,
2013-01-08 08:29:00,29.0,24.0,30.18,South,180,7.0,13.0,83,0.00,,,0.00,Rainwise IP-100,2013-01-08 13:29:00,
2013-01-08 08:34:00,30.0,26.0,30.18,SW,225,4.0,13.0,82,0.00,,,0.00,Rainwise IP-100,2013-01-08 13:34:00,
2013-01-08 08:39:00,30.0,26.0,30.18,South,180,5.0,13.0,82,0.00,,,0.00,Rainwise IP-100,2013-01-08 13:39:00,
2013-01-08 08:44:00,30.0,26.0,30.18,South,180,5.0,11.0,82,0.00,,,0.00,Rainwise IP-100,2013-01-08 13:44:00,
2013-01-08 08:49:00,31.0,26.0,30.18,SW,225,6.0,10.0,81,0.00,,,0.00,Rainwise IP-100,2013-01-08 13:49:00,
2013-01-08 08:54:00,31.0,26.0,30.18,SW,225,0.0,10.0,80,0.00,,,0.00,Rainwise IP-100,2013-01-08 13:54:00,
2013-01-08 08:59:00,32.0,26.0,30.18,SW,225,3.0,7.0,80,0.00,,,0.00,Rainwise IP-100,2013-01-08 13:59:00,
2013-01-08 09:04:00,32.0,26.0,30.19,SW,225,0.0,8.0,78,0.00,,,0.00,Rainwise IP-100,2013-01-08 14:04:00,
2013-01-08 09:09:00,32.0,26.0,30.19,SW,225,0.0,11.0,77,0.00,,,0.00,Rainwise IP-100,2013-01-08 14:09:00,
2013-01-08 09:14:00,33.0,26.0,30.19,SSW,202,3.0,8.0,75,0.00,,,0.00,Rainwise IP-100,2013-01-08 14:14:00,
2013-01-08 09:19:00,33.0,26.0,30.19,South,180,2.0,10.0,74,0.00,,,0.00,Rainwise IP-100,2013-01-08 14:19:00,
2013-01-08 09:24:00,33.0,26.0,30.19,SSW,202,0.0,8.0,72,0.00,,,0.00,Rainwise IP-100,2013-01-08 14:24:00,
2013-01-08 09:29:00,34.0,26.0,30.19,South,180,6.0,10.0,72,0.00,,,0.00,Rainwise IP-100,2013-01-08 14:29:00,
2013-01-08 09:34:00,34.0,26.0,30.19,SW,225,1.0,9.0,72,0.00,,,0.00,Rainwise IP-100,2013-01-08 14:34:00,
2013-01-08 09:39:00,34.0,26.0,30.20,South,180,7.0,10.0,71,0.00,,,0.00,Rainwise IP-100,2013-01-08 14:39:00,
2013-01-08 09:44:00,34.0,26.0,30.20,SSW,202,0.0,9.0,72,0.00,,,0.00,Rainwise IP-100,2013-01-08 14:44:00,
2013-01-08 09:49:00,35.0,26.0,30.20,SSW,202,3.0,8.0,70,0.00,,,0.00,Rainwise IP-100,2013-01-08 14:49:00,
2013-01-08 09:54:00,35.0,26.0,30.20,SSW,202,0.0,10.0,69,0.00,,,0.00,Rainwise IP-100,2013-01-08 14:54:00,
2013-01-08 09:59:00,35.0,26.0,30.20,SW,225,0.0,6.0,69,0.00,,,0.00,Rainwise IP-100,2013-01-08 14:59:00,
2013-01-08 10:04:00,35.0,26.0,30.20,South,180,5.0,8.0,69,0.00,,,0.00,Rainwise IP-100,2013-01-08 15:04:00,
2013-01-08 10:09:00,35.0,26.0,30.20,SSW,202,5.0,10.0,68,0.00,,,0.00,Rainwise IP-100,2013-01-08 15:09:00,
2013-01-08 10:14:00,35.0,26.0,30.20,South,180,5.0,8.0,68,0.00,,,0.00,Rainwise IP-100,2013-01-08 15:14:00,
2013-01-08 10:19:00,35.0,26.0,30.20,SW,225,5.0,10.0,69,0.00,,,0.00,Rainwise IP-100,2013-01-08 15:19:00,
2013-01-08 10:24:00,35.0,26.0,30.20,South,180,1.0,7.0,70,0.00,,,0.00,Rainwise IP-100,2013-01-08 15:24:00,
2013-01-08 10:29:00,35.0,26.0,30.20,SSW,202,2.0,8.0,70,0.00,,,0.00,Rainwise IP-100,2013-01-08 15:29:00,
2013-01-08 10:34:00,35.0,26.0,30.20,SW,225,5.0,11.0,69,0.00,,,0.00,Rainwise IP-100,2013-01-08 15:34:00,
2013-01-08 10:39:00,35.0,26.0,30.20,SW,225,6.0,9.0,69,0.00,,,0.00,Rainwise IP-100,2013-01-08 15:39:00,
2013-01-08 10:44:00,35.0,26.0,30.19,SW,225,0.0,9.0,68,0.00,,,0.00,Rainwise IP-100,2013-01-08 15:44:00,
2013-01-08 10:49:00,35.0,26.0,30.19,South,180,5.0,6.0,69,0.00,,,0.00,Rainwise IP-100,2013-01-08 15:49:00,
2013-01-08 10:54:00,36.0,26.0,30.19,South,180,0.0,9.0,69,0.00,,,0.00,Rainwise IP-100,2013-01-08 15:54:00,
2013-01-08 10:59:00,36.0,26.0,30.19,SW,225,6.0,10.0,68,0.00,,,0.00,Rainwise IP-100,2013-01-08 15:59:00,
2013-01-08 11:04:00,36.0,26.0,30.18,South,180,5.0,11.0,66,0.00,,,0.00,Rainwise IP-100,2013-01-08 16:04:00,
2013-01-08 11:09:00,37.0,26.0,30.18,South,180,2.0,10.0,64,0.00,,,0.00,Rainwise IP-100,2013-01-08 16:09:00,
2013-01-08 11:14:00,37.0,26.0,30.18,South,180,8.0,10.0,65,0.00,,,0.00,Rainwise IP-100,2013-01-08 16:14:00,
2013-01-08 11:19:00,37.0,26.0,30.18,SSW,202,3.0,11.0,64,0.00,,,0.00,Rainwise IP-100,2013-01-08 16:19:00,
2013-01-08 11:24:00,37.0,26.0,30.17,South,180,2.0,11.0,65,0.00,,,0.00,Rainwise IP-100,2013-01-08 16:24:00,
2013-01-08 11:29:00,38.0,26.0,30.17,South,180,7.0,13.0,63,0.00,,,0.00,Rainwise IP-100,2013-01-08 16:29:00,
2013-01-08 11:34:00,38.0,26.0,30.17,South,180,8.0,10.0,62,0.00,,,0.00,Rainwise IP-100,2013-01-08 16:34:00,
2013-01-08 11:39:00,38.0,26.0,30.17,South,180,6.0,12.0,63,0.00,,,0.00,Rainwise IP-100,2013-01-08 16:39:00,
2013-01-08 11:44:00,38.0,26.0,30.17,South,180,13.0,13.0,61,0.00,,,0.00,Rainwise IP-100,2013-01-08 16:44:00,
2013-01-08 11:49:00,39.0,28.0,30.16,SSW,202,4.0,13.0,61,0.00,,,0.00,Rainwise IP-100,2013-01-08 16:49:00,
2013-01-08 11:54:00,39.0,28.0,30.16,South,180,9.0,10.0,61,0.00,,,0.00,Rainwise IP-100,2013-01-08 16:54:00,
2013-01-08 11:59:00,39.0,26.0,30.16,SSE,157,4.0,13.0,59,0.00,,,0.00,Rainwise IP-100,2013-01-08 16:59:00,
2013-01-08 12:04:00,39.0,26.0,30.16,South,180,0.0,12.0,59,0.00,,,0.00,Rainwise IP-100,2013-01-08 17:04:00,
2013-01-08 12:09:00,40.0,28.0,30.16,SSE,157,0.0,10.0,59,0.00,,,0.00,Rainwise IP-100,2013-01-08 17:09:00,
2013-01-08 12:14:00,40.0,28.0,30.16,South,180,7.0,12.0,58,0.00,,,0.00,Rainwise IP-100,2013-01-08 17:14:00,
2013-01-08 12:19:00,40.0,28.0,30.16,SSE,157,8.0,10.0,58,0.00,,,0.00,Rainwise IP-100,2013-01-08 17:19:00,
2013-01-08 12:24:00,41.0,28.0,30.16,South,180,6.0,11.0,57,0.00,,,0.00,Rainwise IP-100,2013-01-08 17:24:00,
2013-01-08 12:29:00,41.0,28.0,30.16,SSE,157,6.0,10.0,57,0.00,,,0.00,Rainwise IP-100,2013-01-08 17:29:00,
2013-01-08 12:34:00,41.0,28.0,30.16,SSE,157,0.0,9.0,57,0.06,,,0.01,Rainwise IP-100,2013-01-08 17:34:00,
2013-01-08 12:39:00,41.0,28.0,30.16,South,180,0.0,7.0,57,0.06,,,0.01,Rainwise IP-100,2013-01-08 17:39:00,
2013-01-08 12:44:00,41.0,28.0,30.16,South,180,4.0,9.0,56,0.00,,,0.01,Rainwise IP-100,2013-01-08 17:44:00,
2013-01-08 12:49:00,41.0,28.0,30.15,SSW,202,2.0,6.0,57,0.00,,,0.01,Rainwise IP-100,2013-01-08 17:49:00,
2013-01-08 12:54:00,41.0,28.0,30.15,South,180,3.0,5.0,56,0.00,,,0.01,Rainwise IP-100,2013-01-08 17:54:00,
2013-01-08 12:59:00,41.0,28.0,30.15,SSE,157,0.0,8.0,56,0.00,,,0.01,Rainwise IP-100,2013-01-08 17:59:00,
2013-01-08 13:04:00,42.0,28.0,30.15,South,180,2.0,6.0,56,0.00,,,0.01,Rainwise IP-100,2013-01-08 18:04:00,
2013-01-08 13:09:00,42.0,28.0,30.15,SSE,157,0.0,5.0,56,0.00,,,0.01,Rainwise IP-100,2013-01-08 18:09:00,
2013-01-08 13:14:00,42.0,28.0,30.15,SSE,157,0.0,6.0,55,0.00,,,0.01,Rainwise IP-100,2013-01-08 18:14:00,
2013-01-08 13:19:00,42.0,28.0,30.15,South,180,3.0,5.0,54,0.00,,,0.01,Rainwise IP-100,2013-01-08 18:19:00,
2013-01-08 13:24:00,42.0,28.0,30.15,South,180,4.0,8.0,54,0.00,,,0.01,Rainwise IP-100,2013-01-08 18:24:00,
2013-01-08 13:29:00,42.0,28.0,30.15,South,180,4.0,6.0,54,0.00,,,0.01,Rainwise IP-100,2013-01-08 18:29:00,
2013-01-08 13:34:00,42.0,28.0,30.16,South,180,0.0,6.0,54,0.00,,,0.01,Rainwise IP-100,2013-01-08 18:34:00,
2013-01-08 13:39:00,43.0,28.0,30.16,SSE,157,0.0,4.0,54,0.00,,,0.01,Rainwise IP-100,2013-01-08 18:39:00,
2013-01-08 13:44:00,43.0,28.0,30.16,SSW,202,2.0,5.0,53,0.00,,,0.01,Rainwise IP-100,2013-01-08 18:44:00,
2013-01-08 13:49:00,44.0,28.0,30.16,SSE,157,0.0,5.0,52,0.00,,,0.01,Rainwise IP-100,2013-01-08 18:49:00,
2013-01-08 13:54:00,44.0,28.0,30.16,SSE,157,2.0,6.0,51,0.06,,,0.02,Rainwise IP-100,2013-01-08 18:54:00,
2013-01-08 13:59:00,45.0,28.0,30.16,SSE,157,5.0,7.0,51,0.06,,,0.02,Rainwise IP-100,2013-01-08 18:59:00,
2013-01-08 14:04:00,45.0,28.0,30.16,SSE,157,0.0,7.0,50,0.00,,,0.02,Rainwise IP-100,2013-01-08 19:04:00,
2013-01-08 14:09:00,45.0,28.0,30.16,SSE,157,4.0,5.0,49,0.00,,,0.02,Rainwise IP-100,2013-01-08 19:09:00,
2013-01-08 14:14:00,45.0,28.0,30.16,ESE,112,0.0,6.0,49,0.00,,,0.02,Rainwise IP-100,2013-01-08 19:14:00,
2013-01-08 14:19:00,45.0,26.0,30.16,South,180,4.0,6.0,47,0.00,,,0.02,Rainwise IP-100,2013-01-08 19:19:00,
2013-01-08 14:24:00,45.0,26.0,30.16,South,180,0.0,8.0,48,0.00,,,0.02,Rainwise IP-100,2013-01-08 19:24:00,
2013-01-08 14:29:00,44.0,26.0,30.16,SSE,157,0.0,5.0,49,0.00,,,0.02,Rainwise IP-100,2013-01-08 19:29:00,
2013-01-08 14:34:00,44.0,28.0,30.16,South,180,0.0,2.0,51,0.00,,,0.02,Rainwise IP-100,2013-01-08 19:34:00,
2013-01-08 14:39:00,45.0,28.0,30.16,South,180,3.0,3.0,50,0.00,,,0.02,Rainwise IP-100,2013-01-08 19:39:00,
2013-01-08 14:44:00,45.0,26.0,30.16,SSE,157,0.0,6.0,48,0.00,,,0.02,Rainwise IP-100,2013-01-08 19:44:00,
2013-01-08 14:49:00,45.0,26.0,30.16,South,180,0.0,5.0,48,0.00,,,0.02,Rainwise IP-100,2013-01-08 19:49:00,
2013-01-08 14:54:00,45.0,26.0,30.16,South,180,3.0,5.0,48,0.00,,,0.02,Rainwise IP-100,2013-01-08 19:54:00,
2013-01-08 14:59:00,46.0,28.0,30.16,SSE,157,0.0,5.0,47,0.00,,,0.02,Rainwise IP-100,2013-01-08 19:59:00,
2013-01-08 15:04:00,45.0,26.0,30.16,South,180,0.0,6.0,47,0.00,,,0.02,Rainwise IP-100,2013-01-08 20:04:00,
2013-01-08 15:09:00,45.0,26.0,30.16,SSE,157,3.0,5.0,47,0.00,,,0.02,Rainwise IP-100,2013-01-08 20:09:00,
2013-01-08 15:14:00,45.0,26.0,30.16,SSE,157,1.0,6.0,47,0.00,,,0.02,Rainwise IP-100,2013-01-08 20:14:00,
2013-01-08 15:19:00,45.0,26.0,30.16,SSE,157,4.0,5.0,48,0.00,,,0.02,Rainwise IP-100,2013-01-08 20:19:00,
2013-01-08 15:24:00,45.0,26.0,30.17,South,180,1.0,5.0,47,0.00,,,0.02,Rainwise IP-100,2013-01-08 20:24:00,
2013-01-08 15:29:00,44.0,26.0,30.17,South,180,0.0,5.0,48,0.00,,,0.02,Rainwise IP-100,2013-01-08 20:29:00,
2013-01-08 15:34:00,44.0,26.0,30.17,SSE,157,0.0,1.0,48,0.00,,,0.02,Rainwise IP-100,2013-01-08 20:34:00,
2013-01-08 15:39:00,44.0,26.0,30.17,SSE,157,0.0,3.0,49,0.00,,,0.02,Rainwise IP-100,2013-01-08 20:39:00,
2013-01-08 15:44:00,43.0,26.0,30.17,SSE,157,0.0,0.0,49,0.00,,,0.02,Rainwise IP-100,2013-01-08 20:44:00,
2013-01-08 15:49:00,42.0,24.0,30.17,SSE,157,0.0,0.0,49,0.00,,,0.02,Rainwise IP-100,2013-01-08 20:49:00,
2013-01-08 15:58:00,42.0,24.0,30.17,SSE,157,0.0,0.0,49,0.00,,,0.02,Rainwise IP-100,2013-01-08 20:58:00,
2013-01-08 16:03:00,41.0,26.0,30.17,SSE,157,0.0,0.0,52,0.00,,,0.02,Rainwise IP-100,2013-01-08 21:03:00,
2013-01-08 16:08:00,40.0,24.0,30.17,SSE,157,0.0,0.0,53,0.00,,,0.02,Rainwise IP-100,2013-01-08 21:08:00,
2013-01-08 16:13:00,40.0,26.0,30.17,SSE,157,0.0,0.0,55,0.00,,,0.02,Rainwise IP-100,2013-01-08 21:13:00,
2013-01-08 16:18:00,39.0,24.0,30.17,SSE,157,0.0,0.0,54,0.00,,,0.02,Rainwise IP-100,2013-01-08 21:18:00,
2013-01-08 16:23:00,38.0,23.0,30.17,SSE,157,0.0,0.0,54,0.00,,,0.02,Rainwise IP-100,2013-01-08 21:23:00,
2013-01-08 16:28:00,38.0,23.0,30.17,SSE,157,1.0,0.0,54,0.00,,,0.02,Rainwise IP-100,2013-01-08 21:28:00,
2013-01-08 16:33:00,37.0,24.0,30.17,South,180,0.0,6.0,61,0.00,,,0.02,Rainwise IP-100,2013-01-08 21:33:00,
2013-01-08 16:38:00,38.0,26.0,30.17,South,180,0.0,5.0,60,0.00,,,0.02,Rainwise IP-100,2013-01-08 21:38:00,
2013-01-08 16:43:00,38.0,26.0,30.17,SSW,202,0.0,3.0,60,0.00,,,0.02,Rainwise IP-100,2013-01-08 21:43:00,
2013-01-08 16:48:00,38.0,26.0,30.17,South,180,0.0,0.0,60,0.00,,,0.02,Rainwise IP-100,2013-01-08 21:48:00,
2013-01-08 16:53:00,37.0,24.0,30.17,South,180,3.0,3.0,60,0.00,,,0.02,Rainwise IP-100,2013-01-08 21:53:00,
2013-01-08 16:58:00,37.0,26.0,30.18,SW,225,0.0,7.0,62,0.00,,,0.02,Rainwise IP-100,2013-01-08 21:58:00,
2013-01-08 17:03:00,38.0,26.0,30.18,South,180,3.0,6.0,62,0.00,,,0.02,Rainwise IP-100,2013-01-08 22:03:00,
2013-01-08 17:08:00,38.0,26.0,30.18,South,180,4.0,6.0,61,0.00,,,0.02,Rainwise IP-100,2013-01-08 22:08:00,
2013-01-08 17:13:00,38.0,26.0,30.18,SSE,157,1.0,6.0,61,0.00,,,0.02,Rainwise IP-100,2013-01-08 22:13:00,
2013-01-08 17:18:00,38.0,26.0,30.18,SE,135,0.0,3.0,60,0.00,,,0.02,Rainwise IP-100,2013-01-08 22:18:00,
2013-01-08 17:23:00,37.0,24.0,30.18,SE,135,0.0,0.0,61,0.00,,,0.02,Rainwise IP-100,2013-01-08 22:23:00,
2013-01-08 17:28:00,37.0,26.0,30.18,South,180,5.0,5.0,62,0.00,,,0.02,Rainwise IP-100,2013-01-08 22:28:00,
2013-01-08 17:33:00,37.0,26.0,30.18,South,180,0.0,5.0,64,0.00,,,0.02,Rainwise IP-100,2013-01-08 22:33:00,
2013-01-08 17:38:00,37.0,26.0,30.18,SW,225,1.0,2.0,63,0.00,,,0.02,Rainwise IP-100,2013-01-08 22:38:00,
2013-01-08 17:43:00,38.0,26.0,30.18,SW,225,0.0,5.0,62,0.00,,,0.02,Rainwise IP-100,2013-01-08 22:43:00,
2013-01-08 17:48:00,37.0,26.0,30.18,SSW,202,2.0,5.0,63,0.00,,,0.02,Rainwise IP-100,2013-01-08 22:48:00,
2013-01-08 17:53:00,38.0,26.0,30.18,SSW,202,0.0,5.0,61,0.00,,,0.02,Rainwise IP-100,2013-01-08 22:53:00,
2013-01-08 17:58:00,37.0,26.0,30.18,South,180,5.0,5.0,63,0.00,,,0.02,Rainwise IP-100,2013-01-08 22:58:00,
2013-01-08 18:03:00,37.0,26.0,30.18,South,180,2.0,6.0,63,0.00,,,0.02,Rainwise IP-100,2013-01-08 23:03:00,
2013-01-08 18:08:00,38.0,26.0,30.18,South,180,4.0,6.0,63,0.00,,,0.02,Rainwise IP-100,2013-01-08 23:08:00,
2013-01-08 18:13:00,38.0,26.0,30.18,South,180,0.0,5.0,62,0.00,,,0.03,Rainwise IP-100,2013-01-08 23:13:00,
2013-01-08 18:18:00,37.0,26.0,30.18,South,180,4.0,4.0,62,0.06,,,0.03,Rainwise IP-100,2013-01-08 23:18:00,
2013-01-08 18:23:00,37.0,26.0,30.18,SW,225,0.0,5.0,62,0.06,,,0.03,Rainwise IP-100,2013-01-08 23:23:00,
2013-01-08 18:28:00,37.0,26.0,30.18,SSW,202,0.0,0.0,62,0.00,,,0.03,Rainwise IP-100,2013-01-08 23:28:00,
2013-01-08 18:33:00,37.0,26.0,30.18,SW,225,0.0,2.0,62,0.00,,,0.03,Rainwise IP-100,2013-01-08 23:33:00,
2013-01-08 18:38:00,36.0,24.0,30.18,South,180,0.0,4.0,64,0.00,,,0.03,Rainwise IP-100,2013-01-08 23:38:00,
2013-01-08 18:43:00,36.0,26.0,30.19,West,270,0.0,2.0,65,0.00,,,0.03,Rainwise IP-100,2013-01-08 23:43:00,
2013-01-08 18:48:00,36.0,26.0,30.19,West,270,0.0,0.0,65,0.00,,,0.03,Rainwise IP-100,2013-01-08 23:48:00,
2013-01-08 18:53:00,36.0,26.0,30.19,NW,315,0.0,0.0,67,0.00,,,0.03,Rainwise IP-100,2013-01-08 23:53:00,
2013-01-08 18:58:00,36.0,26.0,30.20,NW,315,0.0,0.0,67,0.00,,,0.03,Rainwise IP-100,2013-01-08 23:58:00,
2013-01-08 19:03:00,35.0,26.0,30.20,NW,315,0.0,2.0,68,0.00,,,0.03,Rainwise IP-100,2013-01-09 00:03:00,
2013-01-08 19:08:00,35.0,26.0,30.20,NW,315,0.0,1.0,69,0.00,,,0.03,Rainwise IP-100,2013-01-09 00:08:00,
2013-01-08 19:13:00,34.0,26.0,30.20,NW,315,0.0,0.0,71,0.00,,,0.03,Rainwise IP-100,2013-01-09 00:13:00,
2013-01-08 19:18:00,34.0,26.0,30.21,NW,315,0.0,0.0,69,0.00,,,0.03,Rainwise IP-100,2013-01-09 00:18:00,
2013-01-08 19:23:00,33.0,24.0,30.21,NW,315,0.0,0.0,70,0.00,,,0.03,Rainwise IP-100,2013-01-09 00:23:00,
2013-01-08 19:28:00,33.0,26.0,30.21,North,360,0.0,0.0,72,0.00,,,0.03,Rainwise IP-100,2013-01-09 00:28:00,
2013-01-08 19:33:00,32.0,26.0,30.21,North,360,0.0,0.0,75,0.00,,,0.03,Rainwise IP-100,2013-01-09 00:33:00,
2013-01-08 19:38:00,32.0,24.0,30.21,North,360,0.0,0.0,74,0.00,,,0.03,Rainwise IP-100,2013-01-09 00:38:00,
2013-01-08 19:43:00,32.0,26.0,30.21,North,360,0.0,0.0,75,0.00,,,0.03,Rainwise IP-100,2013-01-09 00:43:00,
2013-01-08 19:48:00,31.0,24.0,30.21,North,360,0.0,0.0,77,0.00,,,0.03,Rainwise IP-100,2013-01-09 00:48:00,
2013-01-08 19:53:00,31.0,26.0,30.21,NE,45,0.0,0.0,80,0.00,,,0.03,Rainwise IP-100,2013-01-09 00:53:00,
2013-01-08 20:04:00,30.0,26.0,30.21,ENE,67,0.0,0.0,81,0.00,,,0.03,Rainwise IP-100,2013-01-09 01:04:00,
2013-01-08 20:09:00,30.0,26.0,30.21,ENE,67,0.0,0.0,82,0.00,,,0.03,Rainwise IP-100,2013-01-09 01:09:00,
2013-01-08 20:14:00,29.0,24.0,30.21,ENE,67,0.0,0.0,80,0.00,,,0.03,Rainwise IP-100,2013-01-09 01:14:00,
2013-01-08 20:19:00,29.0,24.0,30.21,ENE,67,0.0,0.0,83,0.00,,,0.03,Rainwise IP-100,2013-01-09 01:19:00,
2013-01-08 20:24:00,29.0,24.0,30.21,ENE,67,0.0,0.0,82,0.00,,,0.03,Rainwise IP-100,2013-01-09 01:24:00,
2013-01-08 20:29:00,29.0,24.0,30.21,ENE,67,0.0,0.0,83,0.00,,,0.03,Rainwise IP-100,2013-01-09 01:29:00,
2013-01-08 20:34:00,28.0,24.0,30.21,ENE,67,0.0,0.0,85,0.00,,,0.03,Rainwise IP-100,2013-01-09 01:34:00,
2013-01-08 20:39:00,28.0,24.0,30.21,ENE,67,0.0,0.0,84,0.00,,,0.03,Rainwise IP-100,2013-01-09 01:39:00,
2013-01-08 20:44:00,28.0,24.0,30.21,ENE,67,0.0,0.0,86,0.00,,,0.03,Rainwise IP-100,2013-01-09 01:44:00,
2013-01-08 20:49:00,27.0,24.0,30.21,ENE,67,0.0,0.0,85,0.00,,,0.03,Rainwise IP-100,2013-01-09 01:49:00,
2013-01-08 20:54:00,28.0,26.0,30.21,NNE,22,1.0,3.0,92,0.00,,,0.03,Rainwise IP-100,2013-01-09 01:54:00,
2013-01-08 20:59:00,28.0,26.0,30.21,NNE,22,0.0,1.0,92,0.00,,,0.03,Rainwise IP-100,2013-01-09 01:59:00,
2013-01-08 21:04:00,28.0,26.0,30.20,NE,45,0.0,1.0,90,0.00,,,0.03,Rainwise IP-100,2013-01-09 02:04:00,
2013-01-08 21:09:00,28.0,26.0,30.20,NE,45,0.0,0.0,90,0.00,,,0.03,Rainwise IP-100,2013-01-09 02:09:00,
2013-01-08 21:14:00,28.0,24.0,30.20,ENE,67,0.0,0.0,88,0.00,,,0.03,Rainwise IP-100,2013-01-09 02:14:00,
2013-01-08 21:19:00,28.0,24.0,30.20,ENE,67,0.0,0.0,89,0.00,,,0.03,Rainwise IP-100,2013-01-09 02:19:00,
2013-01-08 21:24:00,28.0,26.0,30.20,NE,45,0.0,0.0,92,0.00,,,0.03,Rainwise IP-100,2013-01-09 02:24:00,
2013-01-08 21:29:00,27.0,26.0,30.21,ENE,67,0.0,0.0,91,0.00,,,0.03,Rainwise IP-100,2013-01-09 02:29:00,
2013-01-08 21:34:00,27.0,26.0,30.21,ENE,67,0.0,0.0,91,0.00,,,0.03,Rainwise IP-100,2013-01-09 02:34:00,
2013-01-08 21:39:00,27.0,26.0,30.21,NNE,22,0.0,0.0,92,0.00,,,0.03,Rainwise IP-100,2013-01-09 02:39:00,
2013-01-08 21:44:00,27.0,26.0,30.21,NNE,22,0.0,0.0,92,0.00,,,0.03,Rainwise IP-100,2013-01-09 02:44:00,
2013-01-08 21:49:00,27.0,26.0,30.21,NNE,22,0.0,0.0,92,0.00,,,0.03,Rainwise IP-100,2013-01-09 02:49:00,
2013-01-08 21:54:00,27.0,26.0,30.21,NNE,22,0.0,0.0,92,0.00,,,0.03,Rainwise IP-100,2013-01-09 02:54:00,
2013-01-08 21:59:00,27.0,26.0,30.22,NNE,22,0.0,0.0,92,0.00,,,0.03,Rainwise IP-100,2013-01-09 02:59:00,
2013-01-08 22:04:00,26.0,24.0,30.22,NNE,22,0.0,0.0,93,0.00,,,0.03,Rainwise IP-100,2013-01-09 03:04:00,
2013-01-08 22:09:00,26.0,24.0,30.22,NNE,22,0.0,0.0,93,0.00,,,0.03,Rainwise IP-100,2013-01-09 03:09:00,
2013-01-08 22:14:00,26.0,24.0,30.22,NNE,22,0.0,0.0,94,0.00,,,0.03,Rainwise IP-100,2013-01-09 03:14:00,
2013-01-08 22:19:00,26.0,24.0,30.23,NNE,22,0.0,0.0,95,0.00,,,0.03,Rainwise IP-100,2013-01-09 03:19:00,
2013-01-08 22:24:00,26.0,26.0,30.23,WNW,292,0.0,0.0,98,0.00,,,0.03,Rainwise IP-100,2013-01-09 03:24:00,
2013-01-08 22:29:00,26.0,26.0,30.23,West,270,0.0,0.0,99,0.00,,,0.03,Rainwise IP-100,2013-01-09 03:29:00,
2013-01-08 22:34:00,26.0,26.0,30.23,West,270,0.0,0.0,99,0.00,,,0.03,Rainwise IP-100,2013-01-09 03:34:00,
2013-01-08 22:39:00,26.0,26.0,30.23,West,270,0.0,0.0,99,0.00,,,0.03,Rainwise IP-100,2013-01-09 03:39:00,
2013-01-08 22:44:00,26.0,26.0,30.24,WNW,292,0.0,0.0,99,0.00,,,0.03,Rainwise IP-100,2013-01-09 03:44:00,
2013-01-08 22:49:00,26.0,26.0,30.24,WNW,292,0.0,0.0,98,0.00,,,0.03,Rainwise IP-100,2013-01-09 03:49:00,
2013-01-08 22:54:00,26.0,26.0,30.24,WNW,292,0.0,0.0,97,0.00,,,0.03,Rainwise IP-100,2013-01-09 03:54:00,
2013-01-08 22:59:00,26.0,26.0,30.24,WNW,292,0.0,0.0,97,0.00,,,0.03,Rainwise IP-100,2013-01-09 03:59:00,
2013-01-08 23:04:00,25.0,24.0,30.24,WNW,292,0.0,0.0,96,0.00,,,0.03,Rainwise IP-100,2013-01-09 04:04:00,
2013-01-08 23:09:00,26.0,26.0,30.24,NE,45,0.0,0.0,98,0.00,,,0.03,Rainwise IP-100,2013-01-09 04:09:00,
2013-01-08 23:14:00,26.0,26.0,30.23,NE,45,0.0,0.0,98,0.00,,,0.03,Rainwise IP-100,2013-01-09 04:14:00,
2013-01-08 23:19:00,26.0,26.0,30.23,NE,45,0.0,0.0,98,0.00,,,0.03,Rainwise IP-100,2013-01-09 04:19:00,
2013-01-08 23:24:00,26.0,26.0,30.23,NE,45,0.0,0.0,98,0.00,,,0.03,Rainwise IP-100,2013-01-09 04:24:00,
2013-01-08 23:29:00,27.0,26.0,30.22,NE,45,0.0,0.0,95,0.00,,,0.03,Rainwise IP-100,2013-01-09 04:29:00,
2013-01-08 23:34:00,26.0,26.0,30.22,NE,45,0.0,0.0,97,0.00,,,0.03,Rainwise IP-100,2013-01-09 04:34:00,
2013-01-08 23:39:00,26.0,24.0,30.23,NE,45,0.0,0.0,96,0.00,,,0.03,Rainwise IP-100,2013-01-09 04:39:00,
2013-01-08 23:44:00,25.0,24.0,30.23,NE,45,0.0,0.0,96,0.00,,,0.03,Rainwise IP-100,2013-01-09 04:44:00,
2013-01-08 23:49:00,25.0,24.0,30.23,NE,45,0.0,0.0,96,0.00,,,0.03,Rainwise IP-100,2013-01-09 04:49:00,
2013-01-08 23:54:00,25.0,26.0,30.23,NE,45,0.0,0.0,97,0.00,,,0.03,Rainwise IP-100,2013-01-09 04:54:00,
2013-01-08 23:59:00,25.0,24.0,30.23,NE,45,0.0,0.0,96,0.00,,,0.03,Rainwise IP-100,2013-01-09 04:59:00,